Weather History for KTAN - August, 2013

Change the Weather History Date:

Friday, August 2, 2013

  Actual Average Record
Temperature  
Mean Temperature 74 °F -  
Max Temperature 84 °F 83 °F 102 °F (1975)
Min Temperature 64 °F 62 °F 49 °F (1951)
Cooling Degree Days 9    
Growing Degree Days 24 (Base 50)    
Moisture  
Dew Point 65 °F    
Average Humidity 83    
Maximum Humidity 100    
Minimum Humidity 44    
Precipitation  
Precipitation 0.17 in - - ()
Sea Level Pressure  
Sea Level Pressure 29.82 in    
Wind  
Wind Speed 2 mph (WSW)    
Max Wind Speed 9 mph    
Max Gust Speed -    
Visibility 7 miles    
Events Rain , Thunderstorm    
Averages and records for this station are not official NWS values.
T = Trace of Precipitation, MM = Missing Value Source: NWS Daily Summary

Daily Weather History Graph

Daily Weather History Graph

Search for Another Location

Airport or City:

Trip Planner

Search our weather history database for the weather conditions in past years. The results will help you decide how hot, cold, wet, or windy it might be!

Date:

Astronomy

Aug. 02, 2013 Rise Set
Actual Time 5:39 AM EDT 8:00 PM EDT
Civil Twilight 5:07 AM EDT 8:32 PM EDT
Nautical Twilight 4:28 AM EDT 9:10 PM EDT
Astronomical Twilight 3:45 AM EDT 9:53 PM EDT
Moon 1:56 AM EDT (8/2) 4:56 PM EDT (8/2)
Length of Visible Light 15h 24m
Length of Day
14h 21m
Waning Crescent, 16% of the Moon is Illuminated
Aug 2
Waning Crescent
Aug 6
New
Aug 14
First Quarter
Aug 20
Full
Aug 28
Last Quarter

Hourly Weather History & Observations

Time (EDT) Temp. Heat Index Dew Point Humidity Pressure Visibility Wind Dir Wind Speed Gust Speed Precip Events Conditions
12:52 AM 64.0 °F - 62.1 °F 93% 29.87 in 10.0 mi Calm Calm - 0.00 in   Overcast
1:52 AM 64.0 °F - 62.1 °F 93% 29.84 in 10.0 mi Calm Calm - N/A   Overcast
2:52 AM 64.0 °F - 63.0 °F 96% 29.81 in 6.0 mi Calm Calm - N/A   Scattered Clouds
3:52 AM 64.9 °F - 63.0 °F 93% 29.81 in 10.0 mi SE 4.6 mph - N/A   Overcast
3:59 AM 64.9 °F - 63.0 °F 93% 29.81 in 10.0 mi SSE 4.6 mph - N/A   Overcast
4:52 AM 66.0 °F - 64.0 °F 93% 29.81 in 10.0 mi Calm Calm - N/A   Overcast
5:03 AM 66.0 °F - 64.0 °F 93% 29.81 in 9.0 mi Calm Calm - N/A   Overcast
5:52 AM 66.0 °F - 64.9 °F 96% 29.80 in 7.0 mi Calm Calm - 0.00 in   Overcast
5:59 AM 66.0 °F - 64.9 °F 96% 29.80 in 7.0 mi Calm Calm - N/A   Overcast
6:28 AM 66.0 °F - 64.9 °F 96% 29.81 in 1.8 mi Calm Calm - 0.02 in Rain Rain
6:31 AM 66.0 °F - 64.9 °F 96% 29.81 in 1.2 mi Calm Calm - 0.04 in Rain Heavy Rain
6:42 AM 66.0 °F - 64.9 °F 96% 29.81 in 1.5 mi Calm Calm - 0.08 in Rain Heavy Rain
6:47 AM 66.2 °F - 64.4 °F 94% 29.81 in 1.5 mi Calm Calm - 0.09 in Rain Rain
6:52 AM 66.0 °F - 64.9 °F 96% 29.81 in 1.8 mi Calm Calm - 0.10 in Rain Rain
7:00 AM 66.0 °F - 64.9 °F 96% 29.81 in 1.5 mi Calm Calm - 0.01 in Rain , Thunderstorm Rain
7:19 AM 66.0 °F - 64.9 °F 96% 29.82 in 2.5 mi Calm Calm - 0.03 in Rain , Thunderstorm Light Rain
7:27 AM 66.0 °F - 64.9 °F 96% 29.81 in 1.5 mi Calm Calm - 0.06 in Rain , Thunderstorm Thunderstorms and Rain
7:29 AM 66.0 °F - 64.9 °F 96% 29.81 in 1.2 mi Calm Calm - 0.06 in Rain , Thunderstorm Thunderstorms and Rain
7:32 AM 66.9 °F - 64.9 °F 93% 29.82 in 1.5 mi Calm Calm - 0.07 in Rain , Thunderstorm Light Thunderstorms and Rain
7:41 AM 66.9 °F - 66.0 °F 97% 29.82 in 2.5 mi Calm Calm - 0.07 in Rain , Thunderstorm Light Thunderstorms and Rain
7:44 AM 66.9 °F - 66.0 °F 97% 29.82 in 2.5 mi Calm Calm - 0.07 in Rain , Thunderstorm Light Rain
7:46 AM 66.2 °F - 66.2 °F 100% 29.82 in 3.0 mi Calm Calm - 0.07 in Rain Light Rain
7:52 AM 68.0 °F - 66.0 °F 93% 29.82 in 3.0 mi Calm Calm - 0.07 in   Overcast
8:02 AM 68.0 °F - 66.0 °F 93% 29.82 in 3.0 mi Calm Calm - N/A   Overcast
8:48 AM 69.8 °F - 68.0 °F 94% 29.82 in 10.0 mi Calm Calm - N/A   Overcast
8:52 AM 70.0 °F - 68.0 °F 93% 29.82 in 10.0 mi Calm Calm - N/A   Overcast
9:37 AM 71.1 °F - 68.0 °F 90% 29.82 in 10.0 mi Calm Calm - N/A   Overcast
9:52 AM 71.1 °F - 66.9 °F 87% 29.82 in 10.0 mi WSW 4.6 mph - N/A   Overcast
10:04 AM 71.1 °F - 68.0 °F 90% 29.82 in 10.0 mi Variable 3.5 mph - N/A   Overcast
10:24 AM 75.0 °F - 68.0 °F 79% 29.82 in 10.0 mi Variable 4.6 mph - N/A   Scattered Clouds
10:52 AM 73.9 °F - 66.9 °F 79% 29.82 in 10.0 mi NW 4.6 mph - N/A   Scattered Clouds
11:07 AM 73.9 °F - 66.0 °F 76% 29.82 in 10.0 mi WNW 4.6 mph - N/A   Mostly Cloudy
11:19 AM 75.9 °F - 66.9 °F 74% 29.82 in 10.0 mi Variable 4.6 mph - N/A   Scattered Clouds
11:29 AM 75.9 °F - 66.0 °F 71% 29.82 in 10.0 mi West 3.5 mph - N/A   Mostly Cloudy
11:52 AM 78.1 °F - 66.9 °F 68% 29.83 in 10.0 mi West 8.1 mph - N/A   Mostly Cloudy
12:11 PM 78.1 °F - 64.9 °F 64% 29.83 in 10.0 mi WNW 5.8 mph - N/A   Scattered Clouds
12:52 PM 80.1 °F 81.7 °F 64.0 °F 58% 29.81 in 10.0 mi Variable 3.5 mph - N/A   Scattered Clouds
1:52 PM 81.0 °F 81.9 °F 62.1 °F 52% 29.81 in 10.0 mi West 9.2 mph - N/A   Clear
2:52 PM 82.9 °F 83.3 °F 61.0 °F 47% 29.81 in 10.0 mi WNW 8.1 mph - N/A   Partly Cloudy
3:52 PM 84.0 °F 84.0 °F 60.1 °F 44% 29.81 in 10.0 mi West 8.1 mph - N/A   Partly Cloudy
4:52 PM 82.9 °F 83.2 °F 60.1 °F 46% 29.81 in 10.0 mi Variable 6.9 mph - N/A   Partly Cloudy
5:52 PM 82.0 °F 82.1 °F 59.0 °F 45% 29.82 in 10.0 mi West 8.1 mph - N/A   Clear
6:52 PM 79.0 °F - 61.0 °F 54% 29.83 in 10.0 mi West 5.8 mph - N/A   Clear
7:52 PM 75.0 °F - 64.0 °F 69% 29.84 in 10.0 mi SSW 5.8 mph - N/A   Clear
8:52 PM 73.0 °F - 63.0 °F 71% 29.86 in 10.0 mi SSW 3.5 mph - N/A   Clear
9:52 PM 72.0 °F - 64.0 °F 76% 29.87 in 10.0 mi SSW 4.6 mph - N/A   Clear
10:52 PM 71.1 °F - 64.9 °F 81% 29.88 in 10.0 mi SSW 5.8 mph - N/A   Partly Cloudy
11:52 PM 71.1 °F - 64.9 °F 81% 29.88 in 10.0 mi SSW 4.6 mph - N/A   Partly Cloudy